Change the Weather History Date:

Saturday, March 2, 2013

  Actual Average Record
Temperature  
Mean Temperature 66 °F 55 °F  
Max Temperature 79 °F 65 °F 82 °F (1994)
Min Temperature 52 °F 44 °F 31 °F (1953)
Degree Days  
Heating Degree Days 0 10  
Month to date heating degree days 0 21  
Since 1 July heating degree days 1140 1357  
Cooling Degree Days 1 0  
Month to date cooling degree days 4 0  
Year to date cooling degree days 24 9  
Growing Degree Days 16 (Base 50)    
Moisture  
Dew Point 38 °F    
Average Humidity 52    
Maximum Humidity 86    
Minimum Humidity 18    
Precipitation  
Precipitation 0.00 in 0.19 in 1.57 in (1974)
Month to date precipitation 0.00 0.38  
Year to date precipitation 1.20 7.56  
Since 1 July precipitation 3.91  
Sea Level Pressure  
Sea Level Pressure 30.17 in    
Wind  
Wind Speed 6 mph (WSW)    
Max Wind Speed 13 mph    
Max Gust Speed 15 mph    
Visibility 10 miles    
Events      
T = Trace of Precipitation, MM = Missing Value Source: NWS Daily Summary

Daily Weather History Graph

Daily Weather History Graph

Search for Another Location

Airport or City:

Trip Planner

Search our weather history database for the weather conditions in past years. The results will help you decide how hot, cold, wet, or windy it might be!

Date:

Astronomy

Mar. 02, 2013 Rise Set
Actual Time 6:23 AM PST 5:53 PM PST
Civil Twilight 5:58 AM PST 6:18 PM PST
Nautical Twilight 5:29 AM PST 6:47 PM PST
Astronomical Twilight 5:00 AM PST 7:17 PM PST
Moon 11:21 PM PST (3/2) 9:10 AM PST (3/2)
Length of Visible Light 12h 20m
Length of Day
11h 30m
Waning Gibbous, 73% of the Moon is Illuminated
Mar 2
Waning Gibbous
Mar 4
Last Quarter
Mar 11
New
Mar 19
First Quarter
Mar 27
Full

Hourly Weather History & Observations

Time (PST) Temp. Dew Point Humidity Pressure Visibility Wind Dir Wind Speed Gust Speed Precip Events Conditions
12:55 AM 55.9 °F 30.9 °F 39% 30.22 in 10.0 mi Calm Calm - N/A   Clear
1:55 AM 60.1 °F 28.0 °F 30% 30.21 in 10.0 mi ENE 11.5 mph - N/A   Clear
3:55 AM 60.1 °F 26.1 °F 27% 30.19 in 10.0 mi NE 10.4 mph - N/A   Clear
4:55 AM 59.0 °F 26.1 °F 28% 30.19 in 10.0 mi ENE 4.6 mph - N/A   Clear
5:55 AM 60.1 °F 26.1 °F 27% 30.19 in 10.0 mi NE 8.1 mph - N/A   Clear
6:55 AM 60.1 °F 27.0 °F 28% 30.21 in 10.0 mi Calm Calm - N/A   Clear
7:55 AM 68.0 °F 28.0 °F 22% 30.22 in 10.0 mi ENE 4.6 mph - N/A   Clear
8:55 AM 69.1 °F 32.0 °F 25% 30.22 in 10.0 mi WSW 3.5 mph - N/A   Clear
9:55 AM 75.9 °F 34.0 °F 22% 30.22 in 10.0 mi SSW 3.5 mph - N/A   Clear
10:55 AM 78.1 °F 37.0 °F 23% 30.22 in 10.0 mi SSW 5.8 mph - N/A   Clear
11:55 AM 78.1 °F 36.0 °F 22% 30.20 in 10.0 mi WSW 10.4 mph - N/A   Clear
12:55 PM 75.0 °F 33.1 °F 22% 30.17 in 10.0 mi WSW 6.9 mph - N/A   Clear
1:55 PM 75.9 °F 33.1 °F 21% 30.15 in 10.0 mi Variable 5.8 mph - N/A   Clear
2:55 PM 78.1 °F 32.0 °F 19% 30.14 in 10.0 mi West 9.2 mph - N/A   Clear
3:55 PM 77.0 °F 30.9 °F 19% 30.12 in 10.0 mi West 6.9 mph - N/A   Clear
4:55 PM 72.0 °F 43.0 °F 35% 30.11 in 10.0 mi WSW 6.9 mph - N/A   Clear
5:55 PM 64.9 °F 46.0 °F 50% 30.12 in 10.0 mi WSW 5.8 mph - N/A   Clear
6:55 PM 61.0 °F 48.0 °F 62% 30.13 in 10.0 mi WSW 5.8 mph - N/A   Clear
7:55 PM 57.9 °F 50.0 °F 75% 30.14 in 10.0 mi Calm Calm - N/A   Clear
8:55 PM 57.0 °F 52.0 °F 83% 30.15 in 10.0 mi WSW 3.5 mph - N/A   Clear
9:55 PM 55.0 °F 51.1 °F 86% 30.16 in 8.0 mi West 3.5 mph - N/A   Partly Cloudy
10:12 PM 55.4 °F 51.8 °F 88% 30.12 in 6.0 mi Calm Calm - N/A   Mostly Cloudy
10:55 PM 57.0 °F 52.0 °F 83% 30.14 in 6.0 mi Calm Calm - N/A   Haze
11:55 PM 57.0 °F 51.1 °F 81% 30.11 in 7.0 mi NE 9.2 mph - N/A   Mostly Cloudy